EDT,Max TemperatureF,Mean TemperatureF,Min TemperatureF,Max Dew PointF,MeanDew PointF,Min DewpointF,Max Humidity, Mean Humidity, Min Humidity, Max Sea Level PressureIn, Mean Sea Level PressureIn, Min Sea Level PressureIn, Max VisibilityMiles, Mean VisibilityMiles, Min VisibilityMiles, Max Wind SpeedMPH, Mean Wind SpeedMPH, Max Gust SpeedMPH,PrecipitationIn, CloudCover, Events, WindDirDegrees
2008-8-1,88,78,67,68,64,58,97,67,36,29.97,29.88,29.83,10,10,9,18,9,22,0.00,1,,337
2008-8-2,92,77,62,66,63,59,93,64,34,29.90,29.85,29.77,10,10,8,20,7,23,T,1,,335
2008-8-3,89,76,63,66,60,51,100,65,30,29.99,29.93,29.86,10,10,6,16,4,18,0.00,0,,325
2008-8-4,93,78,63,66,60,52,93,60,27,30.14,30.04,29.99,10,9,7,15,4,17,0.00,2,,319
2008-8-5,92,78,63,67,62,59,87,62,36,30.07,30.04,30.01,10,10,7,18,7,23,0.00,0,,344
2008-8-6,93,80,67,67,63,55,93,62,30,30.04,30.01,29.95,10,9,5,22,7,26,0.00,0,,335
2008-8-7,85,76,67,64,63,62,87,68,48,29.96,29.90,29.83,10,10,10,17,7,22,0.00,0,,345
2008-8-8,82,73,64,64,54,46,93,62,30,29.92,29.87,29.84,10,10,6,21,9,25,0.00,1,,344
2008-8-9,83,68,53,64,55,50,86,63,39,29.99,29.93,29.87,10,9,2,14,4,18,0.19,3,Rain,335
2008-8-10,83,71,59,63,57,49,100,68,35,30.00,29.91,29.84,10,6,0,16,5,20,0.00,2,Fog,341
2008-8-11,83,71,59,57,52,45,78,54,30,29.94,29.89,29.85,10,10,10,20,8,25,0.00,0,,343
2008-8-12,80,67,54,60,54,49,86,65,43,30.00,29.89,29.81,10,10,9,12,3,15,0.00,3,,180
2008-8-13,76,69,62,65,61,57,100,81,61,29.90,29.81,29.75,10,8,4,12,5,16,0.07,7,Rain,166
2008-8-14,84,73,62,63,60,51,100,68,36,29.96,29.89,29.83,10,7,4,13,4,18,0.00,6,,171
2008-8-15,83,70,57,64,57,51,100,68,36,30.07,30.01,29.95,10,6,0,13,3,15,0.11,3,Fog-Rain,309
2008-8-16,83,72,61,63,59,54,93,66,39,30.11,30.05,30.03,10,9,4,14,2,18,0.03,4,Rain,310
2008-8-17,80,71,62,63,60,57,100,75,50,30.12,30.04,29.97,10,9,5,14,3,18,0.00,5,,155
2008-8-18,85,73,60,65,61,54,100,67,34,30.13,30.03,29.96,10,6,2,14,3,17,0.00,3,,176
2008-8-19,91,75,59,65,59,46,100,62,23,30.11,30.06,29.97,10,5,0,13,3,17,0.00,1,Fog,316
2008-8-20,85,72,59,63,59,54,100,67,34,30.15,30.08,30.04,10,8,3,15,3,18,0.00,1,,105
2008-8-21,82,71,59,62,60,57,100,73,45,30.24,30.18,30.12,10,6,1,13,4,18,0.00,2,,121
2008-8-22,81,74,67,64,59,50,87,64,40,30.29,30.21,30.15,10,9,7,14,5,18,T,5,Rain,133
2008-8-23,80,71,62,64,60,55,100,71,42,30.30,30.21,30.09,10,10,9,16,4,20,T,5,,119
2008-8-24,81,71,61,63,61,59,93,73,52,30.17,30.07,29.98,10,10,9,13,4,17,0.00,5,,152
2008-8-25,76,72,67,68,66,64,100,85,69,30.07,30.00,29.92,10,7,2,15,1,18,0.96,7,Rain,145
2008-8-26,70,69,67,68,66,66,100,95,90,30.01,29.91,29.80,10,6,0,17,5,24,4.01,8,Fog-Rain,139
2008-8-27,79,73,67,70,67,66,100,85,69,29.92,29.85,29.78,10,6,1,16,6,18,0.39,8,Rain,159
2008-8-28,79,72,65,68,66,62,97,78,58,29.97,29.90,29.82,10,7,1,16,6,18,0.08,7,Rain,345
2008-8-29,84,73,62,63,60,55,100,69,37,30.01,29.95,29.91,10,9,7,12,5,15,0.00,1,,330
2008-8-30,86,72,58,67,61,52,100,65,30,30.09,30.04,30.00,10,8,4,9,3,12,0.00,0,,276
2008-8-31,85,74,62,68,65,62,100,76,51,30.21,30.13,30.06,10,7,2,13,4,16,T,2,,132